Weather History for Istres, France

Change the Weather History Date:

Thursday, April 24, 2014

  Actual Average (LFML) Record (LFML)
Temperature  
Mean Temperature 64 °F -  
Max Temperature 78 °F 68 °F 78 °F (2007)
Min Temperature 49 °F 50 °F 48 °F (1997)
Degree Days  
Heating Degree Days 2    
Growing Degree Days 14 (Base 50)    
Moisture  
Dew Point 50 °F    
Average Humidity 65    
Maximum Humidity 100    
Minimum Humidity 18    
Precipitation  
Precipitation 0.00 in - - ()
Sea Level Pressure  
Sea Level Pressure 29.98 in    
Wind  
Wind Speed 5 mph ()    
Max Wind Speed 14 mph    
Max Gust Speed -    
Visibility 7.5 miles    
Events      
Averages and records for this station are not official NWS values.
T = Trace of Precipitation, MM = Missing Value Source: Averaged Metar Reports

Daily Weather History Graph

Daily Weather History Graph

Search for Another Location

Airport:

Trip Planner

Search our weather history database for the weather conditions in past years. The results will help you decide how hot, cold, wet, or windy it might be!

Date:

Astronomy

Apr. 24, 2014 Rise Set
Actual Time 6:43 AM CEST 8:34 PM CEST
Civil Twilight 6:13 AM CEST 9:04 PM CEST
Nautical Twilight 5:35 AM CEST 9:42 PM CEST
Astronomical Twilight 4:55 AM CEST 10:22 PM CEST
Moon 3:54 AM CEST (4/24) 3:22 PM CEST (4/24)
Length of Visible Light 14h 51m
Length of Day
13h 50m
Waning Crescent, 27% of the Moon is Illuminated
Apr 24
Waning Crescent
Apr 29
New
May 7
First Quarter
May 14
Full
May 21
Last Quarter

Hourly Weather History & Observations

Time (CEST) Temp. Dew Point Humidity Pressure Visibility Wind Dir Wind Speed Gust Speed Precip Events Conditions
12:00 AM 56 °F 53 °F 85% 30.08 in 16 mi ENE 4.6 mph - -   Clear
12:00 AM 55.4 °F 53.6 °F 94% 30.06 in 6.2 mi ENE 4.6 mph - N/A   Unknown
12:30 AM 55.4 °F 53.6 °F 94% 30.06 in 6.2 mi East 3.5 mph - N/A   Unknown
1:00 AM 56 °F 53 °F 87% 30.07 in 19 mi SE 3.5 mph - -   Clear
1:00 AM 57.2 °F 53.6 °F 88% 30.06 in 6.2 mi SE 3.5 mph - N/A   Unknown
1:30 AM 55.4 °F 51.8 °F 88% 30.04 in 6.2 mi Calm Calm - N/A   Unknown
2:00 AM 54 °F 51 °F 88% 30.05 in 18 mi WSW 1.2 mph - -   Clear
2:00 AM 53.6 °F 51.8 °F 94% 30.04 in 6.2 mi WSW 1.2 mph - N/A   Unknown
2:30 AM 51.8 °F 50.0 °F 94% 30.04 in 6.2 mi WNW 8.1 mph - N/A   Unknown
3:00 AM 54 °F 53 °F 93% 30.05 in 9 mi NNW 5.8 mph - -   Clear
3:00 AM 53.6 °F 51.8 °F 94% 30.04 in 6.2 mi NNW 5.8 mph - N/A   Unknown
3:30 AM 51.8 °F 50.0 °F 94% 30.04 in 6.2 mi Variable 3.5 mph - N/A   Unknown
4:00 AM 52 °F 51 °F 93% 30.04 in 9 mi East 1.2 mph - -   Clear
4:00 AM 51.8 °F 50.0 °F 94% 30.04 in 6.2 mi Calm Calm - N/A   Unknown
4:30 AM 50.0 °F 50.0 °F 100% 30.04 in 6.2 mi WNW 5.8 mph - N/A   Unknown
5:00 AM 51 °F 50 °F 93% 30.04 in 9 mi NNW 3.5 mph - -   Clear
5:00 AM 51.8 °F 50.0 °F 94% 30.04 in 6.2 mi NNW 3.5 mph - N/A   Unknown
5:30 AM 50.0 °F 48.2 °F 94% 30.01 in 6.2 mi NW 3.5 mph - N/A   Unknown
6:00 AM 51 °F 49 °F 88% 30.04 in 12 mi NNW 4.6 mph - -   Clear
6:00 AM 50.0 °F 48.2 °F 94% 30.01 in 6.2 mi NNW 4.6 mph - N/A   Unknown
6:30 AM 50.0 °F 48.2 °F 94% 30.01 in 6.2 mi NNE 3.5 mph - N/A   Unknown
7:00 AM 50 °F 47 °F 88% 30.03 in 17 mi NNE 3.5 mph - -   Clear
7:00 AM 50.0 °F 48.2 °F 94% 30.01 in 6.2 mi NNE 3.5 mph - N/A   Unknown
7:30 AM 51.8 °F 50.0 °F 94% 30.01 in 6.2 mi Variable 2.3 mph - N/A   Unknown
8:00 AM 55 °F 51 °F 83% 30.04 in 12 mi West 2.3 mph - -   Clear
8:00 AM 55.4 °F 51.8 °F 88% 30.04 in 6.2 mi West 2.3 mph - N/A   Unknown
8:30 AM 57.2 °F 51.8 °F 82% 30.01 in 6.2 mi WNW 3.5 mph - N/A   Unknown
9:00 AM 59 °F 52 °F 71% 30.04 in 25 mi WNW 3.5 mph - -   Clear
9:00 AM 59.0 °F 51.8 °F 77% 30.04 in 6.2 mi WNW 3.5 mph - N/A   Unknown
9:30 AM 62.6 °F 53.6 °F 72% 30.04 in 6.2 mi WNW 5.8 mph - N/A   Unknown
10:00 AM 65 °F 53 °F 56% 30.03 in 34 mi North 8.1 mph - -   Clear
10:00 AM 64.4 °F 53.6 °F 68% 30.01 in 6.2 mi North 8.1 mph - N/A   Unknown
10:30 AM 68.0 °F 53.6 °F 60% 30.01 in 6.2 mi Variable 4.6 mph - N/A   Unknown
11:00 AM 68 °F 51 °F 44% 30.02 in 25 mi North 6.9 mph - -   Clear
11:00 AM 68.0 °F 51.8 °F 56% 30.01 in 6.2 mi North 6.9 mph - N/A   Unknown
11:30 AM 69.8 °F 51.8 °F 53% 30.01 in 6.2 mi Variable 2.3 mph - N/A   Unknown
12:00 PM 72 °F 53 °F 40% 30.00 in 11 mi NE 2.3 mph - -   Clear
12:00 PM 71.6 °F 51.8 °F 50% 29.98 in 6.2 mi Variable 2.3 mph - N/A   Unknown
12:30 PM 73.4 °F 51.8 °F 47% 29.98 in 6.2 mi Variable 3.5 mph - N/A   Unknown
1:00 PM 74 °F 50 °F 32% 29.99 in 31 mi WSW 5.8 mph - -   Clear
1:00 PM 75.2 °F 50.0 °F 41% 29.98 in 6.2 mi WSW 5.8 mph - N/A   Unknown
1:30 PM 75.2 °F 50.0 °F 41% 29.98 in 6.2 mi Variable 4.6 mph - N/A   Unknown
2:00 PM 77 °F 51 °F 29% 29.97 in 31 mi West 6.9 mph - -   Clear
2:00 PM 77.0 °F 50.0 °F 39% 29.95 in 6.2 mi Variable 6.9 mph - N/A   Unknown
2:30 PM 77.0 °F 44.6 °F 32% 29.95 in 6.2 mi West 6.9 mph - N/A   Unknown
3:00 PM 78 °F 47 °F 23% 29.96 in 37 mi WSW 8.1 mph - -   Clear
3:00 PM 78.8 °F 46.4 °F 32% 29.95 in 6.2 mi WSW 8.1 mph - N/A   Unknown
3:30 PM 77.0 °F 44.6 °F 32% 29.92 in 6.2 mi Variable 5.8 mph - N/A   Unknown
4:00 PM 78 °F 43 °F 18% 29.94 in 25 mi WSW 11.5 mph - -   Clear
4:00 PM 77.0 °F 42.8 °F 29% 29.92 in 6.2 mi WSW 11.5 mph - N/A   Unknown
4:30 PM 77.0 °F 44.6 °F 32% 29.92 in 6.2 mi SSW 11.5 mph - N/A   Unknown
5:00 PM 77.0 °F 41.0 °F 28% 29.89 in 6.2 mi SSW 9.2 mph - N/A   Unknown
5:30 PM 75.2 °F 42.8 °F 31% 29.89 in 6.2 mi SSW 10.4 mph - N/A   Unknown
6:00 PM 75 °F 43 °F 21% 29.91 in 31 mi SW 13.8 mph - -   Clear
6:00 PM 75.2 °F 42.8 °F 31% 29.89 in 6.2 mi SW 13.8 mph - N/A   Unknown
6:30 PM 75.2 °F 44.6 °F 34% 29.89 in 6.2 mi SW 11.5 mph - N/A   Unknown
7:00 PM 71 °F 50 °F 36% 29.91 in 34 mi South 9.2 mph - -   Clear
7:00 PM 71.6 °F 50.0 °F 46% 29.89 in 6.2 mi South 9.2 mph - N/A   Unknown
7:30 PM 68.0 °F 50.0 °F 52% 29.89 in 6.2 mi South 11.5 mph - N/A   Unknown
8:00 PM 66 °F 49 °F 43% 29.90 in 37 mi South 10.4 mph - -   Clear
8:00 PM 66.2 °F 48.2 °F 52% 29.89 in 6.2 mi South 10.4 mph - N/A   Unknown
8:30 PM 64.4 °F 53.6 °F 68% 29.89 in 6.2 mi South 8.1 mph - N/A   Unknown
9:00 PM 62 °F 54 °F 67% 29.90 in 37 mi SSE 8.1 mph - -   Clear
9:00 PM 62.6 °F 53.6 °F 72% 29.89 in 6.2 mi SSE 8.1 mph - N/A   Unknown
9:30 PM 60.8 °F 53.6 °F 77% 29.89 in 6.2 mi SSE 6.9 mph - N/A   Unknown
10:00 PM 61 °F 54 °F 73% 29.91 in 34 mi SSE 8.1 mph - -   Clear
10:00 PM 60.8 °F 55.4 °F 82% 29.89 in 6.2 mi SSE 8.1 mph - N/A   Unknown
10:30 PM 60.8 °F 53.6 °F 77% 29.89 in 6.2 mi SE 5.8 mph - N/A   Unknown
11:00 PM 61 °F 53 °F 67% 29.91 in 12 mi SE 6.9 mph - -   Clear
11:00 PM 60.8 °F 53.6 °F 77% 29.89 in 6.2 mi SE 6.9 mph - N/A   Unknown
11:30 PM 60.8 °F 51.8 °F 72% 29.89 in 6.2 mi SE 5.8 mph - N/A   Unknown